QPF
0.00 0.00 0.00 0.00 0.00 0.00 0.00 0.01 0.01 0.02 0.03 0.05 0.06 0.06 0.06 0.07 0.08 0.08 0.07 0.07 0.04 0.03 0.03 0.03 0.04 0.04 0.05 0.05 0.05 0.06 0.06 0.05 0.06 0.07 0.08 0.11 0.12 0.12
0.00 0.00 0.00 0.01 0.01 0.01 0.01 0.01 0.01 0.01 0.02 0.04 0.05 0.05 0.06 0.07 0.08 0.08 0.07 0.07 0.06 0.05 0.05 0.04 0.03 0.04 0.04 0.05 0.05 0.05 0.05 0.05 0.05 0.05 0.07 0.08 0.09 0.10
0.00 0.01 0.01 0.00 0.00 0.00 0.00 0.00 0.01 0.01 0.01 0.02 0.03 0.03 0.04 0.05 0.06 0.06 0.06 0.06 0.05 0.04 0.04 0.03 0.03 0.03 0.03 0.03 0.04 0.05 0.05 0.04 0.04 0.04 0.05 0.06 0.08 0.09
0.00 0.01 0.01 0.01 0.01 0.00 0.00 0.00 0.00 0.00 0.00 0.01 0.01 0.03 0.03 0.03 0.04 0.05 0.04 0.05 0.04 0.04 0.03 0.02 0.02 0.02 0.02 0.02 0.02 0.03 0.04 0.05 0.05 0.05 0.05 0.04 0.05 0.08
0.01 0.01 0.00 0.00 0.00 0.00 0.00 0.00 0.00 0.00 0.00 0.00 0.01 0.02 0.02 0.03 0.03 0.03 0.03 0.03 0.03 0.03 0.03 0.02 0.02 0.02 0.01 0.01 0.01 0.02 0.02 0.04 0.04 0.04 0.05 0.05 0.05 0.06
0.01 0.01 0.01 0.00 0.00 0.00 0.00 0.00 0.00 0.00 0.00 0.00 0.01 0.01 0.01 0.01 0.01 0.01 0.02 0.02 0.02 0.02 0.01 0.01 0.01 0.01 0.01 0.01 0.01 0.01 0.02 0.03 0.03 0.04 0.04 0.04 0.04 0.05
0.00 0.00 0.00 0.00 0.00 0.00 0.00 0.00 0.00 0.00 0.00 0.00 0.00 0.00 0.00 0.00 0.00 0.00 0.00 0.00 0.01 0.01 0.01 0.01 0.00 0.00 0.00 0.01 0.01 0.01 0.01 0.02 0.03 0.04 0.04 0.05 0.04 0.04
0.00 0.00 0.00 0.00 0.00 0.00 0.00 0.00 0.00 0.00 0.00 0.00 0.00 0.00 0.00 0.00 0.00 0.00 0.00 0.00 0.00 0.00 0.00 0.00 0.00 0.00 0.00 0.00 0.00 0.00 0.01 0.01 0.02 0.03 0.04 0.06 0.07 0.06
0.00 0.00 0.00 0.00 0.00 0.00 0.00 0.00 0.00 0.00 0.00 0.00 0.00 0.00 0.00 0.00 0.00 0.00 0.00 0.00 0.00 0.00 0.00 0.00 0.00 0.00 0.00 0.00 0.00 0.00 0.00 0.00 0.01 0.02 0.04 0.06 0.07 0.08
0.00 0.00 0.00 0.00 0.00 0.00 0.00 0.00 0.00 0.00 0.00 0.00 0.00 0.00 0.00 0.00 0.00 0.00 0.00 0.00 0.00 0.00 0.00 0.00 0.00 0.00 0.00 0.00 0.00 0.00 0.00 0.00 0.01 0.01 0.02 0.04 0.06 0.07
0.00 0.00 0.00 0.00 0.00 0.00 0.00 0.00 0.00 0.00 0.00 0.00 0.00 0.00 0.00 0.00 0.00 0.00 0.00 0.00 0.00 0.00 0.00 0.00 0.00 0.00 0.00 0.00 0.00 0.00 0.00 0.00 0.00 0.01 0.02 0.03 0.05 0.07
0.00 0.00 0.00 0.00 0.00 0.00 0.00 0.00 0.00 0.00 0.00 0.00 0.00 0.00 0.00 0.00 0.00 0.00 0.00 0.01 0.01 0.00 0.00 0.00 0.00 0.00 0.00 0.00 0.00 0.00 0.00 0.00 0.00 0.00 0.01 0.02 0.03 0.05
0.00 0.00 0.00 0.00 0.00 0.00 0.00 0.00 0.00 0.00 0.00 0.00 0.00 0.00 0.00 0.00 0.00 0.00 0.00 0.00 0.01 0.01 0.00 0.00 0.01 0.01 0.01 0.00 0.00 0.00 0.00 0.00 0.00 0.00 0.01 0.01 0.02 0.04
0.00 0.00 0.00 0.00 0.00 0.00 0.00 0.00 0.00 0.00 0.00 0.00 0.00 0.00 0.00 0.00 0.00 0.00 0.00 0.00 0.00 0.00 0.00 0.00 0.01 0.01 0.02 0.01 0.00 0.00 0.00 0.00 0.00 0.00 0.00 0.01 0.02 0.03
0.00 0.00 0.00 0.00 0.00 0.00 0.00 0.00 0.00 0.00 0.00 0.00 0.00 0.00 0.00 0.00 0.00 0.00 0.00 0.00 0.00 0.00 0.00 0.00 0.00 0.01 0.02 0.02 0.01 0.00 0.00 0.00 0.00 0.00 0.00 0.01 0.01 0.02
0.00 0.00 0.00 0.00 0.00 0.00 0.00 0.00 0.00 0.00 0.00 0.00 0.00 0.00 0.00 0.00 0.00 0.00 0.00 0.00 0.00 0.00 0.00 0.00 0.00 0.01 0.01 0.01 0.01 0.01 0.00 0.00 0.00 0.00 0.00 0.01 0.01 0.01
0.00 0.00 0.00 0.00 0.00 0.00 0.00 0.00 0.00 0.00 0.00 0.00 0.00 0.01 0.01 0.01 0.00 0.00 0.01 0.01 0.01 0.00 0.00 0.00 0.00 0.00 0.01 0.01 0.01 0.01 0.00 0.00 0.00 0.00 0.01 0.01 0.01 0.01
0.01 0.01 0.00 0.00 0.00 0.01 0.01 0.01 0.00 0.00 0.00 0.00 0.01 0.01 0.01 0.01 0.01 0.01 0.01 0.01 0.01 0.00 0.00 0.00 0.00 0.01 0.01 0.00 0.00 0.00 0.00 0.00 0.00 0.00 0.01 0.02 0.01 0.01
0.00 0.00 0.00 0.00 0.01 0.01 0.01 0.01 0.00 0.00 0.00 0.01 0.01 0.01 0.01 0.01 0.01 0.01 0.01 0.01 0.01 0.01 0.00 0.00 0.01 0.03 0.03 0.01 0.00 0.00 0.00 0.01 0.01 0.01 0.01 0.02 0.02 0.02
0.00 0.00 0.01 0.01 0.01 0.01 0.01 0.01 0.01 0.01 0.01 0.01 0.01 0.01 0.01 0.01 0.01 0.01 0.01 0.01 0.01 0.01 0.01 0.00 0.01 0.02 0.04 0.03 0.02 0.00 0.00 0.01 0.02 0.02 0.01 0.01 0.02 0.02
0.01 0.01 0.01 0.01 0.01 0.01 0.01 0.01 0.01 0.01 0.01 0.01 0.01 0.01 0.01 0.02 0.02 0.01 0.01 0.01 0.01 0.02 0.01 0.01 0.00 0.01 0.02 0.04 0.03 0.01 0.00 0.00 0.01 0.02 0.03 0.04 0.04 0.03
0.00 0.01 0.01 0.01 0.01 0.01 0.01 0.01 0.01 0.01 0.01 0.01 0.01 0.01 0.01 0.02 0.02 0.01 0.01 0.02 0.02 0.01 0.01 0.01 0.00 0.01 0.02 0.04 0.03 0.01 0.00 0.00 0.00 0.01 0.02 0.04 0.08 0.07
0.01 0.01 0.01 0.01 0.01 0.01 0.01 0.01 0.01 0.01 0.01 0.01 0.01 0.01 0.01 0.01 0.01 0.01 0.02 0.02 0.02 0.01 0.01 0.01 0.01 0.01 0.02 0.02 0.02 0.01 0.01 0.00 0.01 0.01 0.01 0.02 0.03 0.04
MSLP
1022.87 1022.93 1022.97 1022.94 1022.82 1022.60 1022.28 1021.87 1021.39 1020.88 1020.38 1019.92 1019.51 1019.17 1018.87 1018.62 1018.37 1018.11 1017.81 1017.48 1017.11 1016.71 1016.30 1015.90 1015.52 1015.18 1014.86 1014.58 1014.31 1014.05 1013.77 1013.47 1013.14 1012.76 1012.34 1011.86 1011.34 1010.77
1022.61 1022.69 1022.74 1022.75 1022.69 1022.54 1022.30 1021.98 1021.60 1021.17 1020.73 1020.30 1019.90 1019.53 1019.19 1018.86 1018.53 1018.19 1017.83 1017.44 1017.02 1016.60 1016.18 1015.77 1015.40 1015.06 1014.75 1014.47 1014.20 1013.95 1013.68 1013.40 1013.08 1012.73 1012.32 1011.86 1011.35 1010.78
1022.20 1022.26 1022.32 1022.35 1022.34 1022.26 1022.12 1021.90 1021.63 1021.30 1020.94 1020.57 1020.19 1019.81 1019.43 1019.05 1018.65 1018.24 1017.80 1017.36 1016.90 1016.45 1016.01 1015.60 1015.22 1014.87 1014.56 1014.27 1013.99 1013.73 1013.46 1013.17 1012.87 1012.53 1012.16 1011.73 1011.25 1010.70
1021.69 1021.74 1021.79 1021.83 1021.86 1021.84 1021.77 1021.65 1021.48 1021.25 1020.97 1020.66 1020.32 1019.94 1019.54 1019.12 1018.67 1018.21 1017.72 1017.23 1016.75 1016.27 1015.82 1015.40 1015.01 1014.65 1014.32 1014.01 1013.71 1013.41 1013.12 1012.82 1012.52 1012.19 1011.85 1011.46 1011.03 1010.53
1021.16 1021.18 1021.22 1021.26 1021.30 1021.33 1021.32 1021.27 1021.18 1021.03 1020.82 1020.56 1020.25 1019.89 1019.49 1019.05 1018.57 1018.07 1017.56 1017.05 1016.55 1016.06 1015.61 1015.18 1014.78 1014.41 1014.05 1013.70 1013.36 1013.03 1012.70 1012.37 1012.05 1011.73 1011.41 1011.07 1010.69 1010.26
1020.63 1020.64 1020.67 1020.70 1020.74 1020.78 1020.80 1020.80 1020.75 1020.65 1020.49 1020.27 1019.99 1019.65 1019.25 1018.81 1018.33 1017.83 1017.31 1016.80 1016.30 1015.83 1015.37 1014.95 1014.54 1014.15 1013.76 1013.37 1012.98 1012.59 1012.22 1011.85 1011.50 1011.18 1010.87 1010.56 1010.23 1009.87
1020.14 1020.15 1020.16 1020.18 1020.21 1020.25 1020.27 1020.26 1020.23 1020.14 1020.00 1019.81 1019.54 1019.22 1018.84 1018.41 1017.95 1017.47 1016.98 1016.49 1016.02 1015.56 1015.12 1014.70 1014.28 1013.87 1013.45 1013.02 1012.58 1012.14 1011.71 1011.29 1010.91 1010.56 1010.25 1009.96 1009.68 1009.37
1019.69 1019.70 1019.71 1019.72 1019.72 1019.73 1019.72 1019.70 1019.64 1019.54 1019.40 1019.20 1018.94 1018.64 1018.28 1017.89 1017.46 1017.02 1016.57 1016.12 1015.68 1015.26 1014.84 1014.42 1014.00 1013.57 1013.12 1012.65 1012.16 1011.67 1011.18 1010.72 1010.29 1009.91 1009.59 1009.30 1009.04 1008.77
1019.26 1019.29 1019.29 1019.28 1019.26 1019.23 1019.18 1019.11 1019.01 1018.87 1018.70 1018.49 1018.24 1017.94 1017.62 1017.26 1016.88 1016.49 1016.10 1015.70 1015.30 1014.90 1014.50 1014.10 1013.67 1013.22 1012.75 1012.24 1011.72 1011.18 1010.64 1010.13 1009.66 1009.25 1008.89 1008.59 1008.32 1008.07
1018.84 1018.88 1018.88 1018.86 1018.81 1018.73 1018.62 1018.49 1018.34 1018.15 1017.95 1017.72 1017.46 1017.18 1016.89 1016.58 1016.25 1015.91 1015.56 1015.21 1014.85 1014.48 1014.09 1013.69 1013.26 1012.80 1012.30 1011.78 1011.22 1010.65 1010.09 1009.54 1009.03 1008.58 1008.18 1007.84 1007.55 1007.28
1018.41 1018.45 1018.45 1018.41 1018.32 1018.20 1018.04 1017.85 1017.64 1017.41 1017.17 1016.92 1016.66 1016.40 1016.14 1015.86 1015.58 1015.28 1014.98 1014.65 1014.32 1013.96 1013.58 1013.17 1012.73 1012.26 1011.76 1011.22 1010.65 1010.07 1009.49 1008.92 1008.38 1007.89 1007.45 1007.07 1006.73 1006.42
1017.95 1017.99 1017.98 1017.91 1017.79 1017.63 1017.43 1017.19 1016.93 1016.67 1016.40 1016.14 1015.88 1015.63 1015.39 1015.14 1014.89 1014.62 1014.34 1014.03 1013.69 1013.33 1012.94 1012.52 1012.07 1011.59 1011.09 1010.55 1009.99 1009.41 1008.83 1008.25 1007.70 1007.17 1006.69 1006.26 1005.86 1005.49
1017.45 1017.48 1017.45 1017.37 1017.22 1017.03 1016.79 1016.52 1016.24 1015.95 1015.66 1015.39 1015.14 1014.90 1014.67 1014.44 1014.20 1013.94 1013.65 1013.33 1012.98 1012.59 1012.18 1011.74 1011.27 1010.79 1010.28 1009.76 1009.21 1008.66 1008.09 1007.52 1006.96 1006.42 1005.90 1005.41 1004.94 1004.51
1016.94 1016.95 1016.90 1016.80 1016.63 1016.42 1016.16 1015.87 1015.57 1015.28 1014.99 1014.72 1014.47 1014.24 1014.01 1013.78 1013.53 1013.25 1012.93 1012.58 1012.19 1011.76 1011.31 1010.84 1010.35 1009.86 1009.36 1008.85 1008.33 1007.80 1007.26 1006.71 1006.15 1005.59 1005.04 1004.50 1003.97 1003.46
1016.43 1016.41 1016.35 1016.23 1016.05 1015.82 1015.56 1015.27 1014.97 1014.68 1014.40 1014.14 1013.89 1013.65 1013.41 1013.16 1012.88 1012.56 1012.19 1011.79 1011.34 1010.86 1010.36 1009.85 1009.34 1008.84 1008.34 1007.85 1007.36 1006.86 1006.34 1005.81 1005.26 1004.69 1004.11 1003.52 1002.93 1002.36
1015.94 1015.91 1015.83 1015.69 1015.51 1015.28 1015.02 1014.75 1014.46 1014.18 1013.91 1013.65 1013.40 1013.15 1012.88 1012.59 1012.26 1011.88 1011.45 1010.98 1010.46 1009.92 1009.36 1008.81 1008.27 1007.75 1007.26 1006.78 1006.31 1005.84 1005.35 1004.83 1004.28 1003.70 1003.09 1002.46 1001.82 1001.18
1015.52 1015.46 1015.36 1015.22 1015.04 1014.82 1014.58 1014.32 1014.05 1013.78 1013.51 1013.25 1012.99 1012.71 1012.40 1012.06 1011.67 1011.22 1010.71 1010.16 1009.57 1008.96 1008.34 1007.75 1007.18 1006.65 1006.15 1005.68 1005.22 1004.76 1004.28 1003.77 1003.21 1002.61 1001.98 1001.31 1000.62 999.93
1015.16 1015.09 1014.98 1014.84 1014.66 1014.45 1014.22 1013.97 1013.72 1013.46 1013.19 1012.92 1012.63 1012.31 1011.95 1011.54 1011.07 1010.54 1009.95 1009.32 1008.66 1007.99 1007.32 1006.69 1006.10 1005.55 1005.04 1004.57 1004.11 1003.65 1003.17 1002.65 1002.08 1001.46 1000.79 1000.08 999.35 998.62
1014.86 1014.79 1014.67 1014.53 1014.35 1014.15 1013.93 1013.69 1013.45 1013.18 1012.91 1012.61 1012.28 1011.90 1011.48 1010.99 1010.44 1009.82 1009.16 1008.45 1007.72 1007.00 1006.29 1005.63 1005.01 1004.45 1003.94 1003.46 1003.00 1002.53 1002.04 1001.50 1000.91 1000.26 999.56 998.81 998.04 997.26
1014.63 1014.54 1014.43 1014.28 1014.10 1013.90 1013.68 1013.44 1013.19 1012.91 1012.60 1012.26 1011.87 1011.43 1010.93 1010.36 1009.73 1009.03 1008.29 1007.52 1006.74 1005.98 1005.24 1004.56 1003.93 1003.37 1002.85 1002.37 1001.90 1001.43 1000.92 1000.36 999.74 999.05 998.31 997.53 996.71 995.90
1014.43 1014.34 1014.21 1014.05 1013.87 1013.66 1013.43 1013.17 1012.89 1012.58 1012.23 1011.83 1011.38 1010.86 1010.28 1009.62 1008.91 1008.14 1007.33 1006.51 1005.69 1004.90 1004.16 1003.47 1002.85 1002.29 1001.78 1001.30 1000.83 1000.35 999.83 999.25 998.60 997.89 997.11 996.29 995.44 994.59
1014.24 1014.13 1013.99 1013.82 1013.62 1013.39 1013.13 1012.85 1012.53 1012.17 1011.76 1011.29 1010.76 1010.16 1009.49 1008.76 1007.96 1007.13 1006.27 1005.41 1004.57 1003.77 1003.03 1002.36 1001.75 1001.21 1000.72 1000.26 999.80 999.32 998.79 998.20 997.54 996.81 996.01 995.16 994.28 993.40
1014.03 1013.90 1013.74 1013.54 1013.32 1013.06 1012.77 1012.44 1012.07 1011.65 1011.17 1010.63 1010.02 1009.33 1008.58 1007.77 1006.91 1006.03 1005.13 1004.25 1003.40 1002.61 1001.89 1001.24 1000.67 1000.17 999.71 999.27 998.83 998.37 997.85 997.26 996.60 995.85 995.04 994.18 993.29 992.39
Thickness
5532 5530 5528 5526 5524 5522 5521 5519 5519 5519 5519 5517 5514 5513 5512 5512 5512 5513 5513 5515 5517 5518 5520 5522 5524 5527 5530 5533 5537 5540 5543 5547 5552 5557 5561 5565 5568 5572
5520 5518 5516 5514 5512 5510 5508 5506 5504 5503 5502 5501 5498 5497 5497 5497 5498 5498 5499 5499 5501 5503 5506 5508 5510 5513 5516 5519 5522 5525 5529 5533 5538 5543 5547 5552 5556 5560
5509 5507 5504 5502 5500 5498 5496 5493 5491 5489 5487 5486 5484 5483 5483 5483 5484 5484 5484 5486 5487 5489 5491 5494 5496 5498 5501 5504 5507 5511 5514 5518 5523 5528 5533 5538 5543 5548
5497 5495 5493 5491 5488 5485 5483 5480 5478 5476 5474 5472 5471 5470 5469 5469 5470 5470 5471 5472 5473 5475 5477 5479 5481 5484 5486 5489 5492 5496 5499 5503 5508 5513 5518 5524 5529 5534
5486 5483 5481 5478 5475 5473 5471 5468 5465 5464 5461 5459 5458 5457 5457 5457 5457 5457 5458 5458 5459 5461 5463 5465 5467 5469 5471 5474 5477 5481 5484 5489 5493 5497 5503 5508 5514 5520
5476 5473 5470 5467 5463 5460 5458 5455 5453 5450 5448 5446 5444 5444 5443 5443 5443 5443 5445 5444 5445 5448 5449 5450 5452 5454 5456 5459 5463 5466 5469 5473 5476 5481 5486 5492 5498 5503
5466 5463 5460 5456 5453 5450 5447 5443 5441 5438 5435 5433 5431 5430 5430 5429 5428 5428 5428 5430 5432 5434 5435 5436 5438 5439 5441 5443 5446 5449 5453 5457 5460 5464 5469 5474 5480 5486
5456 5453 5449 5446 5443 5440 5437 5434 5431 5427 5423 5421 5418 5416 5416 5415 5415 5414 5413 5414 5416 5419 5419 5421 5422 5424 5425 5427 5430 5433 5436 5439 5443 5447 5452 5457 5462 5468
5445 5442 5439 5436 5432 5429 5426 5423 5420 5417 5414 5411 5407 5405 5403 5402 5401 5400 5399 5398 5398 5401 5402 5406 5407 5408 5409 5411 5413 5416 5418 5421 5424 5429 5433 5439 5445 5451
5435 5432 5428 5425 5422 5419 5415 5412 5408 5406 5403 5401 5398 5395 5392 5390 5388 5387 5385 5386 5386 5385 5385 5388 5391 5391 5394 5395 5396 5398 5400 5403 5406 5410 5415 5420 5426 5433
5426 5423 5419 5415 5413 5410 5406 5402 5398 5395 5393 5390 5388 5385 5382 5380 5377 5375 5372 5371 5371 5371 5368 5368 5372 5374 5378 5379 5379 5380 5382 5384 5387 5391 5396 5401 5408 5414
5417 5414 5411 5407 5404 5400 5395 5391 5388 5385 5382 5380 5377 5374 5371 5368 5365 5361 5358 5354 5352 5353 5353 5351 5351 5351 5358 5363 5363 5363 5364 5366 5369 5373 5377 5382 5388 5395
5407 5404 5401 5398 5394 5390 5386 5382 5379 5376 5373 5369 5366 5363 5359 5356 5352 5348 5344 5340 5336 5335 5335 5333 5333 5332 5332 5341 5348 5347 5347 5350 5353 5356 5360 5365 5370 5375
5398 5395 5391 5388 5384 5380 5376 5373 5370 5367 5362 5358 5355 5351 5347 5344 5340 5336 5332 5328 5325 5323 5321 5318 5316 5316 5316 5320 5327 5332 5332 5333 5335 5340 5344 5349 5354 5359
5389 5386 5382 5378 5375 5371 5367 5364 5360 5355 5351 5347 5343 5340 5336 5333 5329 5326 5322 5319 5316 5313 5310 5307 5305 5303 5302 5304 5309 5313 5316 5320 5320 5323 5327 5332 5337 5343
5379 5376 5373 5369 5365 5362 5358 5353 5349 5344 5340 5336 5333 5329 5326 5322 5319 5315 5312 5309 5306 5304 5300 5297 5295 5293 5292 5292 5293 5297 5298 5300 5306 5308 5312 5318 5323 5327
5369 5365 5361 5358 5354 5351 5347 5343 5339 5334 5330 5326 5323 5319 5316 5313 5309 5305 5301 5298 5295 5294 5292 5289 5286 5284 5283 5282 5283 5285 5287 5289 5291 5293 5298 5305 5312 5315
5360 5356 5353 5349 5346 5342 5338 5334 5330 5326 5321 5317 5313 5309 5305 5302 5299 5295 5291 5288 5285 5284 5282 5279 5276 5275 5275 5276 5274 5274 5275 5277 5280 5281 5284 5291 5302 5307
5352 5348 5344 5341 5337 5333 5329 5325 5321 5317 5312 5308 5303 5299 5295 5292 5288 5285 5282 5278 5276 5274 5272 5268 5265 5263 5263 5266 5268 5265 5263 5266 5269 5273 5275 5279 5288 5297
5343 5340 5336 5332 5328 5324 5320 5316 5312 5308 5303 5299 5294 5290 5286 5282 5279 5276 5272 5269 5267 5265 5263 5260 5256 5253 5251 5253 5256 5258 5254 5254 5257 5262 5267 5272 5279 5288
5335 5331 5327 5323 5320 5316 5312 5308 5304 5300 5295 5291 5286 5282 5278 5274 5271 5268 5264 5262 5259 5257 5255 5254 5251 5248 5245 5244 5247 5253 5252 5249 5250 5253 5258 5264 5273 5282
5326 5323 5319 5316 5312 5308 5304 5300 5296 5291 5287 5283 5279 5275 5271 5267 5264 5260 5257 5254 5252 5250 5249 5248 5245 5242 5239 5238 5241 5246 5249 5249 5250 5251 5254 5257 5261 5273
5319 5315 5311 5308 5304 5300 5296 5292 5288 5284 5280 5276 5272 5269 5265 5261 5258 5254 5252 5249 5247 5245 5244 5242 5240 5238 5236 5236 5237 5240 5243 5246 5249 5253 5258 5260 5263 5270